TimeAWST,TemperatureF,Dew PointF,Humidity,Sea Level PressureIn,VisibilityMPH,Wind Direction,Wind SpeedMPH,Gust SpeedMPH,PrecipitationIn,Events,Conditions,WindDirDegrees,DateUTC
12:00 AM,87,65,37,29.71,,NW,10.4,,,,,310,2012-11-19 16:00:00
12:00 AM,87.8,64.4,46,29.77,-9999.0,NW,10.4,-,N/A,,Unknown,310,2012-11-19 16:00:00
1:00 AM,86.0,64.4,48,29.74,-9999.0,WNW,9.2,-,N/A,,Unknown,300,2012-11-19 17:00:00
2:00 AM,84,66,45,29.70,,NW,5.8,,,,,320,2012-11-19 18:00:00
2:00 AM,84.2,66.2,55,29.74,-9999.0,NW,5.8,-,N/A,,Unknown,320,2012-11-19 18:00:00
3:00 AM,82,65,46,29.70,,NW,3.5,,,,,310,2012-11-19 19:00:00
3:00 AM,82.4,64.4,54,29.74,-9999.0,NW,3.5,-,N/A,,Unknown,310,2012-11-19 19:00:00
4:00 AM,80.6,64.4,58,29.77,-9999.0,North,4.6,-,N/A,,Unknown,350,2012-11-19 20:00:00
5:00 AM,79,64,50,29.73,,NNW,8.1,,,,,330,2012-11-19 21:00:00
5:00 AM,78.8,64.4,61,29.80,-9999.0,NNW,8.1,-,N/A,,Unknown,330,2012-11-19 21:00:00
6:00 AM,79,62,47,29.76,,NW,9.2,,,,,320,2012-11-19 22:00:00
6:00 AM,78.8,62.6,57,29.80,-9999.0,NW,9.2,-,N/A,,Unknown,320,2012-11-19 22:00:00
7:00 AM,84.2,62.6,48,29.83,-9999.0,WNW,11.5,-,N/A,,Unknown,300,2012-11-19 23:00:00
8:00 AM,89,60,27,29.77,,WNW,12.7,,,,,300,2012-11-20 00:00:00
8:00 AM,89.6,59.0,36,29.83,-9999.0,WNW,12.7,-,N/A,,Unknown,300,2012-11-20 00:00:00
9:00 AM,97,48,11,29.77,,West,9.2,,,,,260,2012-11-20 01:00:00
9:00 AM,96.8,48.2,19,29.83,-9999.0,West,9.2,-,N/A,,Unknown,260,2012-11-20 01:00:00
10:00 AM,100.4,46.4,16,29.80,-9999.0,WSW,9.2,-,N/A,,Unknown,250,2012-11-20 02:00:00
11:00 AM,105,40,5,29.74,,SSW,6.9,,,,,210,2012-11-20 03:00:00
11:00 AM,105.8,39.2,10,29.80,-9999.0,SSW,6.9,-,N/A,,Unknown,210,2012-11-20 03:00:00
12:00 PM,107.6,39.2,10,29.77,-9999.0,SSW,6.9,-,N/A,,Unknown,200,2012-11-20 04:00:00
1:00 PM,107.6,41.0,10,29.74,-9999.0,WNW,12.7,-,N/A,,Unknown,290,2012-11-20 05:00:00
2:00 PM,107,42,5,29.68,,NW,6.9,,,,,320,2012-11-20 06:00:00
2:00 PM,107.6,41.0,10,29.74,-9999.0,NW,6.9,-,N/A,,Unknown,320,2012-11-20 06:00:00
3:00 PM,108,42,5,29.66,,NW,10.4,,,,,310,2012-11-20 07:00:00
3:00 PM,107.6,42.8,11,29.71,-9999.0,NW,10.4,-,N/A,,Unknown,310,2012-11-20 07:00:00
4:00 PM,109.4,41.0,10,29.68,-9999.0,West,9.2,-,N/A,,Unknown,280,2012-11-20 08:00:00
5:00 PM,106,41,5,29.63,,NW,8.1,,,,,320,2012-11-20 09:00:00
5:00 PM,105.8,41.0,11,29.68,-9999.0,NW,8.1,-,N/A,,Unknown,320,2012-11-20 09:00:00
6:00 PM,103,41,6,29.65,,NW,5.8,,,,,320,2012-11-20 10:00:00
6:00 PM,104.0,41.0,12,29.71,-9999.0,NW,5.8,-,N/A,,Unknown,320,2012-11-20 10:00:00
7:00 PM,100.4,42.8,14,29.74,-9999.0,WNW,6.9,-,N/A,,Unknown,290,2012-11-20 11:00:00
8:00 PM,99,45,9,29.70,,WNW,12.7,,,,,290,2012-11-20 12:00:00
8:00 PM,98.6,44.6,16,29.74,-9999.0,WNW,12.7,-,N/A,,Unknown,290,2012-11-20 12:00:00
9:00 PM,97,45,9,29.71,,NW,9.2,,,,,310,2012-11-20 13:00:00
9:00 PM,96.8,44.6,17,29.77,-9999.0,NW,9.2,-,N/A,,Unknown,310,2012-11-20 13:00:00
10:00 PM,93.2,59.0,32,29.77,-9999.0,NW,12.7,-,N/A,,Unknown,320,2012-11-20 14:00:00
11:00 PM,91,66,34,29.72,,NW,13.8,,,,,310,2012-11-20 15:00:00
11:00 PM,91.4,66.2,43,29.77,-9999.0,NW,13.8,-,N/A,,Unknown,310,2012-11-20 15:00:00